Temp
18 18 20 20 20 19 20 21 21 21 21 21 20 20 20 20 20 17 25 27 26 26 26 27 29 30 31 33 33 34 34 35 36 36 36 34 33 33 32 30 30 30 32 29 24
18 18 18 19 19 18 20 21 21 21 21 20 20 20 20 19 17 24 26 25 25 25 26 29 31 31 32 33 33 33 34 35 38 37 37 35 35 32 31 31 29 29 28 25 25
18 18 18 18 17 19 20 20 20 21 21 20 20 20 19 19 23 30 25 25 25 25 27 29 31 32 32 34 33 33 34 36 37 36 35 36 34 33 32 32 31 27 25 27 27
18 18 18 18 19 20 20 20 20 21 20 20 20 20 19 17 29 28 26 26 25 24 28 30 31 31 32 32 34 32 34 35 36 34 34 35 35 32 33 31 31 28 26 27 27
17 18 18 19 20 19 20 20 20 20 20 20 20 19 18 25 29 25 26 26 24 26 29 31 31 32 32 33 33 32 34 34 34 33 33 33 33 32 29 29 28 26 25 27 27
17 18 18 19 18 20 20 20 20 20 20 19 19 19 20 27 26 24 24 25 26 27 30 31 32 32 32 32 32 33 34 33 32 33 32 32 30 30 27 27 26 24 23 24 25
17 17 18 19 19 20 21 20 20 20 19 19 19 17 22 28 26 25 25 26 27 28 30 30 30 31 32 31 32 32 31 31 31 31 31 31 29 29 27 27 27 25 21 20 21
17 18 18 19 19 21 21 20 19 19 18 19 18 18 26 26 25 25 26 27 26 27 28 28 29 32 32 32 31 31 32 32 33 31 30 30 33 31 27 27 27 25 21 19 18
18 18 18 19 20 21 20 20 19 18 18 18 18 21 29 26 27 27 27 29 28 27 28 27 30 31 31 31 32 32 32 32 32 32 31 30 33 28 27 27 27 25 22 20 20
18 18 18 19 20 21 20 19 18 17 16 16 19 22 28 30 29 27 27 28 29 29 29 30 31 31 32 32 31 32 31 33 32 32 31 31 33 29 28 28 27 26 25 21 20
19 19 19 19 20 20 18 17 23 24 21 27 28 26 28 29 28 29 28 29 30 30 30 30 30 30 31 32 33 32 32 32 33 34 31 32 32 31 28 28 28 27 26 24 23
19 19 19 20 20 20 19 27 25 23 26 28 27 26 26 26 29 30 29 30 30 30 30 29 30 32 32 31 30 31 31 31 32 33 31 32 32 33 29 28 29 28 26 25 23
19 19 19 20 20 20 22 23 21 21 26 29 28 28 28 27 30 30 30 31 30 30 30 30 32 31 30 30 30 30 30 31 31 32 31 31 31 32 32 29 29 28 27 26 24
19 19 19 20 19 21 24 21 21 20 29 29 30 29 29 29 30 30 30 31 30 30 31 30 32 30 30 30 30 30 31 31 31 31 30 31 30 32 33 30 29 29 28 27 25
19 19 19 20 20 26 22 21 21 22 28 30 30 29 30 30 30 30 30 31 30 30 30 31 30 30 30 30 31 30 32 31 31 31 30 31 30 32 34 33 31 30 30 28 27
20 20 20 20 19 21 20 20 22 27 25 28 30 29 30 30 30 31 31 31 31 30 30 31 32 31 31 32 31 31 30 30 30 30 29 30 31 31 33 32 32 33 32 30 27
20 21 21 21 25 20 20 25 28 27 28 27 27 29 28 28 28 29 29 28 28 27 29 31 31 32 31 30 32 31 30 29 29 29 29 31 31 31 32 33 32 33 31 31 27
22 22 21 21 20 19 23 29 25 25 26 27 27 28 26 27 28 28 28 28 27 27 28 28 28 29 29 29 29 30 30 29 27 29 31 33 31 31 31 27 27 27 28 28 25
21 20 24 22 20 20 29 26 24 24 25 25 27 26 27 26 26 27 27 25 25 25 24 25 27 30 29 29 29 29 28 30 28 29 29 31 32 28 27 26 25 26 27 25 23
22 25 25 23 22 25 28 22 24 24 24 25 24 25 24 25 24 25 26 24 24 24 25 25 23 27 28 29 29 28 30 27 28 26 26 29 30 31 27 26 23 23 23 23 22
23 28 25 23 24 28 26 24 24 24 24 23 23 23 24 23 23 24 24 23 23 23 24 24 23 24 26 27 27 27 25 27 27 27 26 27 29 27 25 25 23 22 22 22 21
26 27 24 23 27 26 25 23 19 23 23 23 23 23 22 22 22 23 23 23 23 22 22 23 21 21 23 25 27 27 26 27 26 25 27 27 27 23 22 23 23 22 21 21 20
27 26 25 26 26 24 23 22 22 22 21 21 21 21 21 21 21 22 22 23 22 21 20 21 22 21 22 24 22 20 16 19 22 23 23 24 25 22 21 22 21 20 20 20 20
26 26 25 24 23 23 23 21 21 21 20 21 21 21 21 21 22 21 21 21 21 21 18 19 20 20 19 20 21 19 18 18 18 19 22 24 25 21 21 22 21 20 20 20 19
25 22 20 23 22 21 22 21 21 20 21 20 20 20 20 19 20 21 21 20 21 19 20 19 19 20 21 21 21 21 20 18 15 14 16 20 18 18 20 20 22 20 20 19 18
25 23 22 20 20 21 19 20 20 20 19 20 19 20 20 19 19 19 19 19 19 19 19 18 18 19 19 21 22 20 20 19 16 15 15 17 17 19 20 21 22 20 19 17 16
19 19 24 15 20 21 20 19 19 19 19 20 19 19 20 19 18 19 19 18 18 18 17 17 17 17 18 19 18 19 13 16 16 15 15 15 14 16 18 19 19 19 18 17 15
Height
815 812 810 808 807 805 803 801 800 798 796 795 794 792 791 789 787 786 780 776 776 777 778 780 779 778 778 773 774 770 781 777 767 768 760 764 771 771 774 785 786 786 781 795 810
813 811 808 806 805 803 801 799 798 796 794 793 792 791 789 788 786 779 775 773 774 775 778 776 774 775 773 772 771 774 777 768 748 749 755 762 763 776 781 785 791 790 796 804 810
812 810 807 804 803 801 798 797 796 794 792 791 790 790 789 787 782 765 770 771 771 773 775 774 773 771 771 765 768 769 772 754 751 755 756 757 764 769 775 784 782 796 802 804 808
811 808 805 802 800 798 796 795 794 793 791 790 789 788 787 789 778 768 768 768 770 773 773 771 771 773 772 773 761 775 763 756 753 759 763 762 758 772 772 778 778 791 801 802 807
809 806 804 800 798 796 794 793 793 791 790 788 787 787 788 782 769 769 766 765 768 772 769 768 769 767 772 764 763 771 758 758 758 762 764 761 767 773 786 783 787 799 803 804 807
808 805 802 798 796 794 793 792 791 790 789 788 787 787 788 781 770 769 769 769 771 771 769 767 764 762 763 766 767 757 759 762 763 761 766 771 777 777 790 789 794 803 809 811 811
806 803 800 797 795 793 792 791 790 789 788 788 787 787 785 771 770 769 770 770 771 771 769 769 768 766 761 768 762 763 772 769 767 766 768 768 787 784 783 788 794 802 813 817 818
804 801 798 796 794 792 791 790 788 787 787 787 786 787 775 769 769 768 769 770 771 772 771 770 770 762 760 757 763 769 766 773 759 767 768 773 770 769 784 785 792 799 813 819 822
801 799 797 795 793 791 789 788 787 786 786 786 787 785 768 767 766 764 766 765 769 771 771 771 769 763 764 767 770 765 771 769 763 758 763 771 763 769 778 783 789 797 809 815 819
799 797 795 793 791 790 788 787 785 786 785 786 786 785 767 762 763 764 765 765 766 768 770 767 765 770 764 763 777 766 772 760 764 757 764 766 757 770 777 780 785 790 798 810 815
797 795 794 792 790 789 787 788 786 783 782 769 768 769 764 763 763 762 764 764 762 763 769 766 772 774 763 759 754 761 762 762 752 744 763 761 758 759 774 778 780 785 792 798 805
795 794 792 791 790 788 787 781 784 787 778 766 767 767 767 767 763 759 762 764 765 768 764 772 773 752 755 759 767 767 769 767 756 750 762 757 757 747 763 771 770 777 785 793 800
793 792 791 790 788 788 788 787 787 786 778 763 762 762 763 765 760 757 759 756 762 766 765 768 754 753 764 766 772 767 769 765 765 756 759 761 760 749 744 761 766 768 774 783 791
792 791 790 789 791 787 786 787 785 783 770 772 763 764 762 760 761 755 755 755 759 763 758 761 747 760 763 765 762 769 753 760 761 765 774 751 774 744 740 752 760 761 766 771 781
790 789 789 788 788 784 788 784 783 782 792 770 764 761 760 761 758 755 754 755 762 758 763 756 756 760 762 756 748 760 745 750 754 759 761 754 766 747 728 737 742 749 751 758 769
789 788 788 789 788 787 785 783 783 782 810 782 768 770 765 762 761 753 753 754 752 757 754 753 739 750 747 741 744 742 752 755 755 756 769 754 753 749 736 735 733 728 732 746 761
790 789 788 788 787 785 782 780 779 796 780 793 787 775 775 776 771 766 765 769 772 778 762 749 746 737 744 753 739 746 757 771 770 765 763 736 742 735 723 715 722 723 726 734 756
791 790 789 787 785 782 780 774 806 804 801 788 786 778 790 784 778 776 775 774 776 776 770 769 771 754 748 752 755 749 748 759 773 757 738 714 733 727 717 731 738 738 739 739 759
792 791 791 789 784 782 773 795 814 813 805 803 786 792 788 787 787 783 781 792 790 787 798 787 775 746 748 747 749 749 757 736 751 741 744 726 713 727 730 738 744 742 740 752 765
794 791 790 788 783 780 782 813 812 809 805 798 808 800 803 798 799 792 786 797 797 793 785 785 794 765 754 748 744 750 737 760 745 770 762 730 725 716 731 738 748 753 754 761 771
794 786 793 789 786 781 798 809 810 808 807 810 810 809 805 807 805 798 794 802 801 798 791 790 790 779 764 759 753 749 762 748 744 745 751 748 730 728 740 743 748 754 759 765 774
793 794 797 791 794 796 806 811 819 813 811 811 810 811 815 811 809 804 806 804 803 803 804 795 799 793 780 762 752 749 750 746 753 752 737 733 735 744 752 752 752 756 760 767 776
795 798 800 792 802 808 813 817 820 819 822 820 821 818 816 815 818 809 810 804 805 809 808 801 794 794 777 764 769 776 800 784 761 752 755 756 745 751 756 755 759 763 765 772 777
797 801 805 805 812 810 816 823 823 823 825 823 823 818 820 816 812 815 812 808 807 807 815 808 800 800 798 788 782 786 793 796 793 783 760 745 737 754 757 755 761 764 769 774 782
801 816 820 815 819 820 818 824 824 828 824 825 823 823 824 823 817 813 812 811 806 811 807 807 805 791 783 778 775 771 775 786 805 812 798 765 773 775 764 761 754 763 769 777 787
805 812 819 826 827 822 830 829 829 829 829 827 829 825 822 825 822 822 819 814 813 809 806 807 805 795 789 771 764 768 768 777 794 797 797 782 781 774 767 758 755 766 775 784 796
819 819 813 836 826 823 829 832 831 830 828 827 828 825 820 823 822 820 817 816 816 817 815 811 809 802 788 781 780 774 809 795 797 800 798 792 797 784 777 775 771 770 778 787 799
Wind_Speed
15 14 13 12 13 14 13 12 10 10 9 10 11 12 13 14 15 7 12 7 4 12 10 9 8 10 11 13 10 8 10 13 13 10 7 12 12 7 4 12 5 3 8 23 26
15 14 13 13 13 13 12 11 10 9 8 9 10 12 12 14 14 17 12 9 9 9 15 13 10 11 12 13 9 12 13 18 11 6 3 13 12 13 11 13 10 13 20 26 25
16 15 13 12 12 12 10 10 9 8 8 9 9 10 10 12 10 4 5 2 10 11 11 17 8 11 13 12 15 17 17 16 9 7 6 8 11 12 11 13 14 17 19 21 22
16 16 15 13 11 10 9 9 8 8 7 8 7 8 10 3 2 3 6 9 11 12 11 17 13 12 13 14 16 14 16 12 10 6 8 10 10 9 11 6 9 17 19 20 18
15 16 14 13 11 9 8 8 8 7 8 6 5 5 3 6 5 6 7 3 18 12 14 13 13 13 13 13 10 16 12 14 10 10 9 6 10 7 8 8 17 17 16 16 15
14 15 15 12 12 9 8 7 7 7 7 5 4 3 4 8 2 5 9 7 10 14 11 9 7 7 8 9 14 9 13 9 8 9 5 12 6 11 9 12 16 16 15 13 13
14 15 15 13 11 9 7 7 7 6 5 4 2 2 7 9 2 4 2 2 11 7 9 8 5 9 5 7 4 5 13 9 10 9 6 12 11 13 15 14 16 16 13 12 11
13 14 15 13 10 7 6 6 5 4 3 3 1 2 6 3 4 7 7 6 9 6 2 4 7 5 9 5 8 13 14 14 15 10 5 12 18 14 15 16 15 15 13 12 10
12 13 13 11 8 6 6 6 5 3 2 2 2 4 2 3 4 1 13 7 8 6 4 3 9 6 7 13 11 11 13 19 13 13 8 15 18 19 16 15 15 15 15 13 13
12 12 12 9 6 6 7 6 4 2 2 4 5 5 6 2 5 2 8 11 8 10 8 7 8 10 11 11 12 12 16 9 17 12 13 16 18 12 13 15 15 16 17 15 14
11 10 9 6 5 5 5 1 5 5 7 6 8 8 8 8 4 5 9 11 9 9 9 9 10 13 15 14 12 7 12 14 11 11 15 19 19 14 12 14 16 17 17 17 17
9 9 7 4 3 3 2 3 5 4 7 4 6 6 8 8 3 7 10 12 10 11 5 8 14 8 5 7 10 12 13 15 11 8 12 17 23 22 17 17 17 17 18 18 17
8 7 6 4 3 0 1 4 2 7 5 3 2 4 4 6 2 4 10 8 10 12 11 14 3 2 11 11 12 14 15 13 15 7 14 15 19 22 19 16 17 17 18 19 20
6 5 3 2 1 2 1 3 11 6 4 7 9 5 1 2 3 2 9 6 6 8 10 11 12 9 13 13 13 15 14 16 16 14 16 19 17 21 21 20 20 20 20 21 22
5 3 1 3 4 2 3 12 2 3 1 6 13 1 1 4 8 4 2 8 14 6 7 5 7 9 12 13 11 15 15 14 15 16 17 18 12 16 19 20 22 22 23 24 22
4 3 1 1 1 2 8 4 3 6 4 6 9 9 5 7 13 7 2 7 5 10 12 18 9 8 14 12 8 11 9 13 12 14 17 20 18 16 18 19 18 20 24 22 21
6 7 6 3 4 11 8 4 4 5 6 8 9 8 10 10 9 13 10 9 10 7 9 8 13 15 6 15 15 15 15 13 15 15 16 19 20 16 17 12 12 12 11 20 19
13 11 9 7 9 10 4 2 7 4 9 10 8 5 6 11 7 13 11 6 13 14 10 7 8 3 7 8 11 14 14 15 23 17 18 18 18 15 1 4 7 9 11 14 19
6 4 8 14 9 5 5 7 5 7 8 10 11 7 4 9 11 9 6 9 10 14 9 11 16 14 14 14 14 14 9 11 16 20 18 20 21 9 7 5 2 4 8 14 18
2 1 15 17 9 6 4 6 5 8 5 6 8 4 11 11 10 11 6 10 9 14 12 9 17 15 17 11 16 14 13 12 11 19 23 19 19 11 7 4 5 3 8 13 16
2 0 15 13 7 4 6 5 5 10 11 10 9 11 10 11 12 10 5 7 12 14 15 13 11 16 17 16 17 11 13 16 16 13 17 18 12 9 9 7 6 6 8 13 16
3 1 17 11 4 3 6 4 4 8 10 5 6 8 7 9 7 6 6 8 9 17 15 11 7 16 19 22 26 16 21 22 15 18 17 15 14 7 6 5 3 8 11 14 17
3 3 14 7 3 6 6 6 6 8 10 7 6 6 7 5 5 5 6 11 11 16 11 10 6 15 13 12 8 8 18 27 18 18 19 16 14 6 4 4 3 8 11 16 18
1 1 3 6 4 4 4 5 3 6 5 4 5 2 8 5 2 6 8 7 16 12 8 8 11 14 14 19 15 20 14 12 14 11 19 18 17 9 8 4 3 8 12 16 17
3 3 3 3 6 6 4 2 5 3 3 7 0 7 7 5 10 2 14 15 13 3 10 4 13 15 18 21 21 24 19 16 8 16 11 9 9 13 15 12 5 8 14 17 17
1 2 4 4 1 3 0 2 4 3 3 3 6 9 6 6 10 15 16 12 5 8 7 5 9 16 20 21 17 21 15 10 10 10 17 16 15 17 15 10 5 10 14 17 17
4 3 2 1 2 2 3 2 3 3 2 3 6 9 5 10 12 13 9 8 6 5 9 7 9 12 13 19 18 10 12 1 4 2 3 7 9 13 10 9 3 8 12 15 16
Wind_Direction
334 329 318 309 302 296 300 299 300 302 303 302 305 306 309 305 306 274 254 244 185 187 167 168 184 189 198 218 227 241 238 244 229 230 122 155 165 171 108 144 139 145 129 130 149
337 331 325 316 304 301 300 301 301 302 299 304 309 310 314 315 298 265 252 235 222 187 201 196 186 187 200 216 205 219 225 234 250 248 251 171 187 158 170 154 133 113 111 137 150
339 335 324 317 312 302 300 299 301 299 301 307 314 313 317 324 277 116 162 249 201 192 213 208 206 202 222 215 211 219 244 236 236 262 287 197 199 162 197 188 160 150 144 150 154
337 334 332 319 310 302 302 301 301 301 303 308 315 314 316 296 330 115 287 275 197 180 190 186 197 203 220 213 216 240 231 261 248 275 255 234 185 197 208 69 126 145 155 154 158
333 334 329 323 312 306 303 310 306 306 301 305 309 311 324 243 267 349 328 155 168 176 188 188 198 210 223 220 214 228 233 222 254 261 244 239 194 161 132 116 120 137 153 158 160
327 333 332 325 317 309 311 306 302 301 301 309 308 321 274 263 98 85 102 112 178 186 189 202 219 208 239 235 221 213 233 235 232 229 210 205 175 170 147 144 139 146 148 156 158
325 332 335 328 317 314 308 303 312 313 315 314 293 334 255 276 188 176 46 116 161 198 195 207 229 211 169 189 206 222 212 203 215 205 207 222 197 216 149 161 157 149 149 149 161
322 328 334 332 326 316 312 312 302 294 293 276 254 268 268 198 220 241 214 174 188 191 235 218 211 260 243 118 187 210 229 220 180 202 182 203 219 147 161 167 169 158 158 155 160
317 324 332 333 332 319 307 299 290 279 271 233 265 263 236 189 255 133 191 177 157 178 169 163 206 250 192 212 203 208 226 222 167 199 179 212 227 141 168 177 175 174 172 167 164
311 318 330 335 326 312 308 301 280 275 238 238 251 242 230 139 351 124 173 162 169 160 169 194 204 213 227 222 226 217 229 231 242 173 219 208 232 144 178 190 185 186 178 178 180
304 312 326 329 315 322 336 270 222 181 208 293 324 286 304 311 223 174 172 189 164 205 210 202 221 219 216 226 277 288 257 251 225 224 220 233 221 180 183 205 197 194 192 190 186
301 308 322 313 305 321 352 329 45 6 304 223 282 279 280 267 247 179 175 199 207 231 188 201 232 236 274 233 237 241 245 244 250 273 223 237 236 243 177 211 212 203 198 196 187
300 308 317 300 286 203 293 40 352 320 261 45 23 1 21 183 234 167 196 221 231 237 227 260 300 277 213 216 234 236 246 247 253 196 227 257 251 236 205 217 219 215 208 202 196
310 319 314 308 138 210 134 333 313 222 246 48 43 64 105 270 184 347 225 255 227 265 240 261 274 213 229 241 235 254 212 256 249 237 247 205 253 227 223 213 219 218 213 207 201
333 331 311 196 320 286 346 325 163 211 167 20 31 38 48 333 336 100 198 244 265 220 235 223 202 215 238 244 249 251 260 240 252 252 248 241 254 258 251 224 208 224 220 214 200
18 30 61 27 257 334 319 318 219 228 69 19 26 3 45 39 37 27 66 222 286 282 238 270 292 276 274 285 257 256 229 234 252 254 245 242 254 243 247 221 242 239 222 211 199
59 69 65 64 349 321 314 224 225 32 336 10 358 355 37 14 28 13 4 45 21 304 258 267 258 247 297 282 252 235 246 251 238 232 246 248 242 244 249 272 225 265 301 192 188
81 75 41 18 328 331 261 222 58 33 16 348 343 300 37 14 358 347 348 4 35 351 314 298 272 30 23 325 315 304 251 257 265 260 265 255 245 246 266 35 317 281 265 173 178
82 39 32 349 332 323 267 45 35 6 352 337 309 322 353 11 331 351 34 15 35 19 349 316 285 319 302 311 291 285 251 284 291 280 276 273 267 154 143 119 352 287 198 172 179
317 344 26 351 355 283 62 79 87 29 333 329 354 357 328 341 333 330 322 37 5 13 346 320 301 288 305 288 264 250 288 276 238 262 266 265 264 287 134 79 91 139 175 172 173
285 154 5 352 340 39 55 74 78 44 10 355 343 320 333 344 324 327 15 83 12 352 339 333 295 294 305 278 282 267 248 247 270 273 282 278 282 61 79 67 104 142 165 168 168
324 27 352 342 55 44 59 32 1 16 13 12 2 341 352 340 324 345 2 11 7 344 325 313 289 286 289 299 291 283 286 286 267 263 252 261 277 69 78 46 110 141 153 163 163
62 36 10 318 59 88 105 87 50 20 24 7 11 358 347 327 312 339 348 359 6 339 339 325 295 301 294 280 338 354 352 330 319 298 271 270 261 119 95 80 89 138 153 162 157
201 188 77 53 48 34 114 63 78 42 56 10 13 342 334 315 305 300 316 333 337 333 336 304 283 282 287 294 285 282 286 309 334 301 282 257 276 86 34 41 133 147 154 159 161
356 71 358 40 58 67 75 64 55 47 38 12 336 3 349 307 318 311 327 328 319 68 305 280 280 286 290 298 286 271 265 276 286 310 303 346 332 4 350 326 268 166 162 157 153
35 137 90 94 70 84 45 63 28 50 327 44 342 341 334 310 326 317 327 328 338 329 335 321 289 311 295 291 289 271 249 257 265 264 275 303 322 353 349 348 120 161 166 162 159
59 86 288 174 135 250 55 58 40 325 153 310 328 319 343 348 314 301 294 293 280 315 340 318 316 316 308 338 304 279 22 342 79 5 302 324 343 338 3 2 57 147 164 158 162